Time,TemperatureF,DewpointF,PressureIn,WindDirection,WindDirectionDegrees,WindSpeedMPH,WindSpeedGustMPH,Humidity,HourlyPrecipIn,Conditions,Clouds,dailyrainin,SoftwareType,DateUTC
2015-03-05 00:12:00,25.0,15.0,-100.00,West,265,0.0,0.0,65,0.00,,,0.00,,2015-03-05 08:12:00,
2015-03-05 00:21:00,25.0,15.0,-100.00,West,265,0.0,0.0,65,0.00,,,0.00,,2015-03-05 08:21:00,
2015-03-05 00:42:00,24.0,14.0,-100.00,SSW,195,0.0,0.0,65,0.00,,,0.00,,2015-03-05 08:42:00,
2015-03-05 00:52:00,24.0,14.0,-100.00,SSW,195,0.0,0.0,65,0.00,,,0.00,,2015-03-05 08:52:00,
2015-03-05 01:11:00,25.0,15.0,-100.00,West,267,0.0,0.0,66,0.00,,,0.00,,2015-03-05 09:11:00,
2015-03-05 01:22:00,25.0,15.0,-100.00,West,267,0.0,0.0,66,0.00,,,0.00,,2015-03-05 09:22:00,
2015-03-05 01:43:00,26.0,15.0,-100.00,SW,219,0.0,0.0,65,0.00,,,0.00,,2015-03-05 09:43:00,
2015-03-05 01:53:00,26.0,15.0,-100.00,SW,219,0.0,0.0,65,0.00,,,0.00,,2015-03-05 09:53:00,
2015-03-05 02:13:00,24.0,16.0,-100.00,NNW,329,0.0,0.0,70,0.00,,,0.00,,2015-03-05 10:13:00,
2015-03-05 02:23:00,24.0,16.0,-100.00,NNW,329,0.0,0.0,70,0.00,,,0.00,,2015-03-05 10:23:00,
2015-03-05 02:43:00,23.0,15.0,-100.00,NW,313,0.0,0.0,72,0.00,,,0.00,,2015-03-05 10:43:00,
2015-03-05 02:53:00,23.0,15.0,-100.00,NW,313,0.0,0.0,72,0.00,,,0.00,,2015-03-05 10:53:00,
2015-03-05 03:12:00,22.0,16.0,-100.00,NE,49,0.0,0.0,78,0.00,,,0.00,,2015-03-05 11:12:00,
2015-03-05 03:23:00,22.0,16.0,-100.00,NE,49,0.0,0.0,78,0.00,,,0.00,,2015-03-05 11:23:00,
2015-03-05 03:42:00,21.0,15.0,-100.00,NNW,329,0.0,0.0,79,0.00,,,0.00,,2015-03-05 11:42:00,
2015-03-05 03:52:00,21.0,15.0,-100.00,NNW,329,0.0,0.0,79,0.00,,,0.00,,2015-03-05 11:52:00,
2015-03-05 04:12:00,22.0,16.0,-100.00,NW,313,2.0,3.0,77,0.00,,,0.00,,2015-03-05 12:12:00,
2015-03-05 04:22:00,22.0,16.0,-100.00,NW,313,2.0,3.0,77,0.00,,,0.00,,2015-03-05 12:22:00,
2015-03-05 04:42:00,21.0,17.0,-100.00,NNE,18,0.0,1.0,82,0.00,,,0.00,,2015-03-05 12:42:00,
2015-03-05 04:52:00,21.0,17.0,-100.00,NNE,18,0.0,1.0,82,0.00,,,0.00,,2015-03-05 12:52:00,
2015-03-05 05:12:00,22.0,17.0,-100.00,North,360,1.0,2.0,80,0.00,,,0.00,,2015-03-05 13:12:00,
2015-03-05 05:22:00,22.0,17.0,-100.00,North,360,1.0,2.0,80,0.00,,,0.00,,2015-03-05 13:22:00,
2015-03-05 05:43:00,21.0,17.0,-100.00,NE,34,0.0,1.0,83,0.00,,,0.00,,2015-03-05 13:43:00,
2015-03-05 05:52:00,21.0,17.0,-100.00,NE,34,0.0,1.0,83,0.00,,,0.00,,2015-03-05 13:52:00,
2015-03-05 06:11:00,24.0,18.0,-100.00,NNW,332,2.0,4.0,78,0.00,,,0.00,,2015-03-05 14:11:00,
2015-03-05 06:22:00,24.0,18.0,-100.00,NNW,332,2.0,4.0,78,0.00,,,0.00,,2015-03-05 14:22:00,
2015-03-05 06:42:00,23.0,18.0,-100.00,North,360,1.0,2.0,79,0.00,,,0.00,,2015-03-05 14:42:00,
2015-03-05 06:53:00,23.0,18.0,-100.00,North,360,1.0,2.0,79,0.00,,,0.00,,2015-03-05 14:53:00,
2015-03-05 07:12:00,23.0,18.0,-100.00,North,7,0.0,2.0,79,0.00,,,0.00,,2015-03-05 15:12:00,
2015-03-05 07:22:00,23.0,18.0,-100.00,North,7,0.0,2.0,79,0.00,,,0.00,,2015-03-05 15:22:00,
2015-03-05 07:43:00,24.0,18.0,-100.00,NW,322,0.0,2.0,78,0.00,,,0.00,,2015-03-05 15:43:00,
2015-03-05 07:54:00,24.0,18.0,-100.00,NW,322,0.0,2.0,78,0.00,,,0.00,,2015-03-05 15:54:00,
2015-03-05 08:04:00,24.0,18.0,-100.00,NW,322,0.0,2.0,78,0.00,,,0.00,,2015-03-05 16:04:00,
2015-03-05 08:23:00,26.0,19.0,-100.00,NW,326,0.0,2.0,73,0.00,,,0.00,,2015-03-05 16:23:00,
2015-03-05 08:33:00,26.0,19.0,-100.00,NW,326,0.0,2.0,73,0.00,,,0.00,,2015-03-05 16:33:00,
2015-03-05 08:43:00,26.0,19.0,-100.00,NW,326,0.0,2.0,73,0.00,,,0.00,,2015-03-05 16:43:00,
2015-03-05 09:22:00,32.0,19.0,-100.00,NNE,25,2.0,4.0,60,0.00,,,0.00,,2015-03-05 17:22:00,
2015-03-05 09:33:00,32.0,19.0,-100.00,NNE,25,2.0,4.0,60,0.00,,,0.00,,2015-03-05 17:33:00,
2015-03-05 09:43:00,32.0,19.0,-100.00,NNE,25,2.0,4.0,60,0.00,,,0.00,,2015-03-05 17:43:00,
2015-03-05 10:12:00,36.0,18.0,-100.00,NNE,30,2.0,4.0,46,0.00,,,0.00,,2015-03-05 18:12:00,
2015-03-05 10:23:00,36.0,18.0,-100.00,NNE,30,2.0,4.0,46,0.00,,,0.00,,2015-03-05 18:23:00,
2015-03-05 10:43:00,40.0,17.0,-100.00,ESE,116,1.0,4.0,40,0.00,,,0.00,,2015-03-05 18:43:00,
2015-03-05 10:53:00,40.0,17.0,-100.00,ESE,116,1.0,4.0,40,0.00,,,0.00,,2015-03-05 18:53:00,
2015-03-05 11:12:00,41.0,14.0,-100.00,WSW,253,1.0,2.0,32,0.00,,,0.00,,2015-03-05 19:12:00,
2015-03-05 11:23:00,41.0,14.0,-100.00,WSW,253,1.0,2.0,32,0.00,,,0.00,,2015-03-05 19:23:00,
2015-03-05 11:43:00,43.0,12.0,-100.00,ESE,109,3.0,5.0,28,0.00,,,0.00,,2015-03-05 19:43:00,
2015-03-05 11:52:00,43.0,12.0,-100.00,ESE,109,3.0,5.0,28,0.00,,,0.00,,2015-03-05 19:52:00,
2015-03-05 12:11:00,45.0,12.0,-100.00,ESE,116,3.0,5.0,26,0.00,,,0.00,,2015-03-05 20:11:00,
2015-03-05 12:22:00,45.0,12.0,-100.00,ESE,116,3.0,5.0,26,0.00,,,0.00,,2015-03-05 20:22:00,
2015-03-05 12:42:00,48.0,13.0,-100.00,SSE,158,3.0,5.0,24,0.00,,,0.00,,2015-03-05 20:42:00,
2015-03-05 12:52:00,48.0,13.0,-100.00,SSE,158,3.0,5.0,24,0.00,,,0.00,,2015-03-05 20:52:00,
2015-03-05 13:11:00,49.0,13.0,-100.00,SE,145,3.0,7.0,23,0.00,,,0.00,,2015-03-05 21:11:00,
2015-03-05 13:22:00,49.0,13.0,-100.00,SE,145,3.0,7.0,23,0.00,,,0.00,,2015-03-05 21:22:00,
2015-03-05 13:43:00,49.0,14.0,-100.00,SSE,167,3.0,6.0,24,0.00,,,0.00,,2015-03-05 21:43:00,
2015-03-05 13:53:00,49.0,14.0,-100.00,SSE,167,3.0,6.0,24,0.00,,,0.00,,2015-03-05 21:53:00,
2015-03-05 14:12:00,49.0,15.0,-100.00,SSE,161,3.0,6.0,25,0.00,,,0.00,,2015-03-05 22:12:00,
2015-03-05 14:23:00,49.0,15.0,-100.00,SSE,161,3.0,6.0,25,0.00,,,0.00,,2015-03-05 22:23:00,
2015-03-05 14:43:00,49.0,16.0,-100.00,South,179,4.0,8.0,26,0.00,,,0.00,,2015-03-05 22:43:00,
2015-03-05 14:53:00,49.0,16.0,-100.00,South,179,4.0,8.0,26,0.00,,,0.00,,2015-03-05 22:53:00,
2015-03-05 15:12:00,51.0,16.0,-100.00,SSW,193,4.0,6.0,25,0.00,,,0.00,,2015-03-05 23:12:00,
2015-03-05 15:22:00,51.0,16.0,-100.00,SSW,193,4.0,6.0,25,0.00,,,0.00,,2015-03-05 23:22:00,
2015-03-05 15:43:00,50.0,17.0,-100.00,SSE,151,4.0,7.0,27,0.00,,,0.00,,2015-03-05 23:43:00,
2015-03-05 15:52:00,50.0,17.0,-100.00,SSE,151,4.0,7.0,27,0.00,,,0.00,,2015-03-05 23:52:00,
2015-03-05 16:12:00,49.0,18.0,-100.00,SE,141,2.0,7.0,28,0.00,,,0.00,,2015-03-06 00:12:00,
2015-03-05 16:22:00,49.0,18.0,-100.00,SE,141,2.0,7.0,28,0.00,,,0.00,,2015-03-06 00:22:00,
2015-03-05 16:43:00,50.0,18.0,-100.00,SSW,209,4.0,8.0,28,0.00,,,0.00,,2015-03-06 00:43:00,
2015-03-05 16:52:00,50.0,18.0,-100.00,SSW,209,4.0,8.0,28,0.00,,,0.00,,2015-03-06 00:52:00,
2015-03-05 17:12:00,48.0,19.0,-100.00,SW,219,2.0,3.0,31,0.00,,,0.00,,2015-03-06 01:12:00,
2015-03-05 17:22:00,48.0,19.0,-100.00,SW,219,2.0,3.0,31,0.00,,,0.00,,2015-03-06 01:22:00,
2015-03-05 17:41:00,47.0,19.0,-100.00,ESE,109,1.0,2.0,33,0.00,,,0.00,,2015-03-06 01:41:00,
2015-03-05 17:52:00,47.0,19.0,-100.00,ESE,109,1.0,2.0,33,0.00,,,0.00,,2015-03-06 01:52:00,
2015-03-05 18:11:00,40.0,21.0,-100.00,West,265,0.0,0.0,46,0.00,,,0.00,,2015-03-06 02:11:00,
2015-03-05 18:21:00,40.0,21.0,-100.00,West,265,0.0,0.0,46,0.00,,,0.00,,2015-03-06 02:21:00,
2015-03-05 18:41:00,39.0,21.0,-100.00,NW,306,1.0,2.0,48,0.00,,,0.00,,2015-03-06 02:41:00,
2015-03-05 18:52:00,39.0,21.0,-100.00,NW,306,1.0,2.0,48,0.00,,,0.00,,2015-03-06 02:52:00,
2015-03-05 19:11:00,35.0,20.0,-100.00,NW,313,1.0,2.0,55,0.00,,,0.00,,2015-03-06 03:11:00,
2015-03-05 19:21:00,35.0,20.0,-100.00,NW,313,1.0,2.0,55,0.00,,,0.00,,2015-03-06 03:21:00,
2015-03-05 19:43:00,33.0,20.0,-100.00,NNE,20,0.0,1.0,59,0.00,,,0.00,,2015-03-06 03:43:00,
2015-03-05 19:53:00,33.0,20.0,-100.00,NNE,20,0.0,1.0,59,0.00,,,0.00,,2015-03-06 03:53:00,
2015-03-05 20:13:00,30.0,20.0,-100.00,WNW,302,1.0,2.0,65,0.00,,,0.00,,2015-03-06 04:13:00,
2015-03-05 20:23:00,30.0,20.0,-100.00,WNW,302,1.0,2.0,65,0.00,,,0.00,,2015-03-06 04:23:00,
2015-03-05 20:43:00,29.0,20.0,-100.00,South,176,0.0,0.0,70,0.00,,,0.00,,2015-03-06 04:43:00,
2015-03-05 20:53:00,29.0,20.0,-100.00,South,176,0.0,0.0,70,0.00,,,0.00,,2015-03-06 04:53:00,
2015-03-05 21:13:00,30.0,21.0,-100.00,West,274,0.0,0.0,70,0.00,,,0.00,,2015-03-06 05:13:00,
2015-03-05 21:22:00,30.0,21.0,-100.00,West,274,0.0,0.0,70,0.00,,,0.00,,2015-03-06 05:22:00,
2015-03-05 21:43:00,28.0,21.0,-100.00,NW,316,0.0,0.0,74,0.00,,,0.00,,2015-03-06 05:43:00,
2015-03-05 21:53:00,28.0,21.0,-100.00,NW,316,0.0,0.0,74,0.00,,,0.00,,2015-03-06 05:53:00,
2015-03-05 22:12:00,28.0,21.0,-100.00,West,278,0.0,0.0,74,0.00,,,0.00,,2015-03-06 06:12:00,
2015-03-05 22:22:00,28.0,21.0,-100.00,West,278,0.0,0.0,74,0.00,,,0.00,,2015-03-06 06:22:00,
2015-03-05 22:42:00,28.0,21.0,-100.00,WNW,289,0.0,0.0,75,0.00,,,0.00,,2015-03-06 06:42:00,
2015-03-05 22:52:00,28.0,21.0,-100.00,WNW,289,0.0,0.0,75,0.00,,,0.00,,2015-03-06 06:52:00,
2015-03-05 23:12:00,29.0,21.0,-100.00,SSW,208,0.0,0.0,72,0.00,,,0.00,,2015-03-06 07:12:00,